Gainesville, GA

8:05 AM EST on February 23, 2017 (GMT -0500)
Gilmer Memorial

Weather History for KGVL - December, 2011

Change the Weather History Date:

Saturday, December 17, 2011

  Actual Average Record
Temperature  
Mean Temperature 45 °F 43 °F  
Max Temperature 53 °F 52 °F 73 °F (1933)
Min Temperature 37 °F 35 °F 13 °F (1972)
Degree Days  
Heating Degree Days 20 22  
Month to date heating degree days 340  
Since 1 July heating degree days 875  
Moisture  
Dew Point 36 °F    
Average Humidity 73    
Maximum Humidity 100    
Minimum Humidity 41    
Precipitation  
Precipitation 0.00 in 0.15 in 3.30 in (1992)
Month to date precipitation 2.90  
Year to date precipitation 52.38  
Snow  
Snow 0.00 in - - ()
Month to date snowfall  
Since 1 July snowfall  
Snow Depth -    
Sea Level Pressure  
Sea Level Pressure 30.22 in    
Wind  
Wind Speed 9 mph (WNW)    
Max Wind Speed 14 mph    
Max Gust Speed 17 mph    
Visibility 10 miles    
Events      
T = Trace of Precipitation, MM = Missing Value Source: NWS Daily Summary

Daily Weather History Graph

Daily Weather History Graph

Search for Another Location

Airport or City:

Trip Planner

Search our weather history database for the weather conditions in past years. The results will help you decide how hot, cold, wet, or windy it might be!

Date:

Astronomy

Dec. 17, 2011 Rise Set
Actual Time 7:35 AM EST 5:27 PM EST
Civil Twilight 7:07 AM EST 5:55 PM EST
Nautical Twilight 6:35 AM EST 6:26 PM EST
Astronomical Twilight 6:05 AM EST 6:57 PM EST
Moon No Moon Rise 12:06 PM EST (12/17)
Length of Visible Light 10h 48m
Length of Day
9h 52m
Waning Gibbous, 54% of the Moon is Illuminated
Dec 17
Waning Gibbous
Dec 17
Last Quarter
Dec 24
New
Jan 1
First Quarter
Jan 9
Full

Hourly Weather History & Observations

Time (EST) Temp. Windchill Dew Point Humidity Pressure Visibility Wind Dir Wind Speed Gust Speed Precip Events Conditions
12:53 AM 48.0 °F - 46.0 °F 93% 30.15 in 10.0 mi West 9.2 mph - N/A   Clear
1:22 AM 46.4 °F 42.4 °F 46.4 °F 100% 30.16 in 10.0 mi West 8.1 mph - N/A   Scattered Clouds
1:33 AM 46.4 °F 42.4 °F 46.4 °F 100% 30.16 in 10.0 mi West 8.1 mph - N/A   Mostly Cloudy
1:53 AM 46.0 °F 41.9 °F 45.0 °F 96% 30.15 in 10.0 mi West 8.1 mph - N/A   Mostly Cloudy
2:53 AM 46.0 °F 41.9 °F 45.0 °F 96% 30.16 in 10.0 mi West 8.1 mph - N/A   Mostly Cloudy
3:06 AM 46.4 °F 42.9 °F 44.6 °F 93% 30.18 in 10.0 mi West 6.9 mph - N/A   Mostly Cloudy
3:53 AM 45.0 °F 40.1 °F 44.1 °F 97% 30.17 in 10.0 mi West 9.2 mph - N/A   Mostly Cloudy
4:53 AM 44.1 °F 38.6 °F 43.0 °F 96% 30.18 in 10.0 mi WNW 10.4 mph - N/A   Overcast
5:53 AM 43.0 °F 38.2 °F 42.1 °F 97% 30.18 in 10.0 mi West 8.1 mph - N/A   Overcast
6:53 AM 42.1 °F 36.6 °F 39.9 °F 92% 30.19 in 10.0 mi West 9.2 mph - N/A   Mostly Cloudy
7:36 AM 41.0 °F 33.9 °F 39.2 °F 93% 30.23 in 10.0 mi WNW 12.7 mph - N/A   Mostly Cloudy
7:43 AM 41.0 °F 33.5 °F 37.4 °F 87% 30.23 in 10.0 mi WNW 13.8 mph - N/A   Scattered Clouds
7:53 AM 41.0 °F 34.3 °F 37.9 °F 89% 30.23 in 10.0 mi WNW 11.5 mph - N/A   Scattered Clouds
8:53 AM 43.0 °F 38.2 °F 37.0 °F 80% 30.25 in 10.0 mi WNW 8.1 mph - N/A   Clear
9:53 AM 45.0 °F 39.3 °F 36.0 °F 71% 30.25 in 10.0 mi WNW 11.5 mph - N/A   Clear
10:53 AM 46.9 °F - 34.0 °F 61% 30.26 in 10.0 mi WNW 11.5 mph - N/A   Clear
11:53 AM 50.0 °F - 30.9 °F 48% 30.23 in 10.0 mi WNW 5.8 mph - N/A   Clear
12:53 PM 51.1 °F - 28.0 °F 41% 30.22 in 10.0 mi WNW 9.2 mph 17.3 mph N/A   Clear
1:53 PM 53.1 °F - 32.0 °F 45% 30.20 in 10.0 mi West 8.1 mph - N/A   Clear
2:53 PM 53.1 °F - 30.9 °F 43% 30.19 in 10.0 mi West 9.2 mph - N/A   Clear
3:53 PM 52.0 °F - 33.1 °F 49% 30.20 in 10.0 mi WNW 10.4 mph - N/A   Clear
4:53 PM 50.0 °F - 33.1 °F 52% 30.21 in 10.0 mi West 6.9 mph - N/A   Clear
5:53 PM 46.0 °F 41.9 °F 30.9 °F 56% 30.23 in 10.0 mi West 8.1 mph - N/A   Clear
6:53 PM 43.0 °F 37.2 °F 28.0 °F 56% 30.25 in 10.0 mi West 10.4 mph - N/A   Clear
7:53 PM 41.0 °F 34.7 °F 28.0 °F 60% 30.26 in 10.0 mi West 10.4 mph - N/A   Clear
8:53 PM 39.9 °F 33.9 °F 27.0 °F 60% 30.28 in 10.0 mi WNW 9.2 mph - N/A   Clear
9:53 PM 39.0 °F 35.7 °F 25.0 °F 57% 30.28 in 10.0 mi WNW 4.6 mph - N/A   Clear
10:53 PM 37.9 °F 33.5 °F 25.0 °F 60% 30.27 in 10.0 mi WNW 5.8 mph - N/A   Clear
11:53 PM 37.9 °F 32.7 °F 25.0 °F 60% 30.29 in 10.0 mi WNW 6.9 mph - N/A   Clear